EW9627 Weather Reports


time (UTC)temp
C
wind
direction
speed
KPH
gust
KPH
rain 1hr
cm
rain 24hr
cm
rain mn
cm
humidity
%
barometer
mb
20260505221606 25 303 6.4 22.5 0.00 0.00 0.00 43 1013.2
20260505214529 25 318 9.7 19.3 0.00 0.00 0.00 43 1013.5
20260505213034 25 298 8.0 19.3 0.00 0.00 0.00 44 1013.6
20260505211530 24 314 9.7 20.9 0.00 0.00 0.00 45 1013.7
20260505210031 24 316 9.7 19.3 0.00 0.00 0.00 45 1013.9
20260505203032 23 309 9.7 19.3 0.00 0.00 0.00 46 1014.1
20260505200107 23 308 8.0 14.5 0.00 0.00 0.00 47 1014.3
20260505194608 22 302 6.4 17.7 0.00 0.00 0.00 47 1014.5
20260505193029 22 313 8.0 16.1 0.00 0.00 0.00 48 1014.5
20260505191531 22 303 9.7 22.5 0.00 0.00 0.00 49 1014.6
20260505190026 22 304 6.4 17.7 0.00 0.00 0.00 49 1014.7
20260505184530 21 298 8.0 22.5 0.00 0.00 0.00 51 1014.8
20260505183030 21 301 8.0 19.3 0.00 0.00 0.00 51 1014.8
20260505181531 21 283 8.0 20.9 0.00 0.00 0.00 52 1014.8
20260505180104 21 284 6.4 16.1 0.00 0.00 0.00 53 1014.8
20260505173103 20 253 4.8 17.7 0.00 0.00 0.00 55 1014.8
20260505171525 20 263 4.8 19.3 0.00 0.00 0.00 56 1014.8
20260505170035 19 246 3.2 19.3 0.00 0.00 0.00 57 1014.8
20260505164530 19 281 6.4 19.3 0.00 0.00 0.00 58 1014.8
20260505161531 18 262 6.4 17.7 0.00 0.00 0.00 60 1014.9
20260505153030 17 277 4.8 17.7 0.00 0.00 0.00 62 1014.6
20260505151531 17 240 3.2 14.5 0.00 0.00 0.00 63 1014.6
20260505150104 16 246 3.2 17.7 0.00 0.00 0.00 64 1014.5
20260505124530 15 207 1.6 12.9 0.00 0.00 0.00 68 1013.1
20260505123031 15 222 3.2 17.7 0.00 0.00 0.00 68 1013.0
20260505121532 15 222 1.6 16.1 0.00 0.00 0.00 68 1012.9
20260505114529 16 240 4.8 19.3 0.00 0.00 0.00 66 1012.8
20260505113034 16 234 4.8 20.9 0.00 0.00 0.00 65 1012.6
20260505111532 16 267 6.4 30.6 0.00 0.00 0.00 65 1012.4
20260505094530 17 262 8.0 20.9 0.00 0.00 0.00 64 1011.8
20260505093031 17 250 4.8 25.7 0.00 0.00 0.00 64 1011.8
20260505091526 17 251 4.8 16.1 0.00 0.00 0.00 64 1011.7
20260505090031 18 257 3.2 17.7 0.00 0.00 0.00 62 1011.7
20260505084528 18 255 4.8 25.7 0.00 0.00 0.00 62 1011.6
20260505083116 18 258 4.8 17.7 0.00 0.00 0.00 61 1011.6
20260505081531 18 224 0.0 6.4 0.00 0.00 0.00 59 1011.5
20260505080029 19 257 3.2 19.3 0.00 0.00 0.00 58 1011.5
20260505074530 20 250 4.8 17.7 0.00 0.00 0.00 58 1011.3
20260505073031 20 239 6.4 22.5 0.00 0.00 0.00 58 1011.3
20260505071531 20 234 4.8 17.7 0.00 0.00 0.00 57 1011.2
20260505070031 20 230 4.8 24.1 0.00 0.00 0.00 57 1011.1
20260505063103 20 231 4.8 22.5 0.00 0.00 0.00 56 1010.9
20260505061533 20 233 6.4 16.1 0.00 0.00 0.00 55 1010.8
20260505060030 20 208 1.6 11.3 0.00 0.00 0.00 53 1010.7
20260505054536 20 237 3.2 17.7 0.00 0.00 0.00 52 1010.6
20260505053032 20 227 4.8 17.7 0.00 0.00 0.00 51 1010.6
20260505051534 21 211 4.8 16.1 0.00 0.00 0.00 50 1010.6
20260505050148 21 192 1.6 14.5 0.00 0.00 0.00 48 1010.6
20260505041606 22 178 4.8 20.9 0.00 0.00 0.00 45 1009.9
20260505040046 22 180 6.4 16.1 0.00 0.00 0.00 45 1009.6
20260505033031 22 198 6.4 17.7 0.00 0.00 0.00 45 1009.3
20260505031532 22 186 8.0 22.5 0.00 0.00 0.00 45 1009.1
20260505030032 23 187 6.4 17.7 0.00 0.00 0.00 46 1008.9
20260505021530 24 209 6.4 17.7 0.00 0.00 0.00 43 1008.7
20260505020030 25 209 6.4 16.1 0.00 0.00 0.00 41 1008.7
20260505014532 26 232 6.4 17.7 0.00 0.00 0.00 40 1008.6
20260505013106 26 230 4.8 17.7 0.00 0.00 0.00 39 1008.5
20260505011646 26 244 4.8 22.5 0.00 0.00 0.00 40 1008.5
20260505004530 27 276 4.8 27.4 0.00 0.00 0.00 37 1008.5
20260505003147 27 277 4.8 17.7 0.00 0.00 0.00 36 1008.6
20260505001531 28 254 3.2 19.3 0.00 0.00 0.00 36 1008.6
20260504233031 28 253 4.8 17.7 0.00 0.00 0.00 36 1008.7
20260504231531 28 259 6.4 22.5 0.00 0.00 0.00 37 1008.8
20260504230031 28 291 8.0 22.5 0.00 0.00 0.00 37 1009.0
20260504224533 28 273 6.4 17.7 0.00 0.00 0.00 36 1009.1
20260504223031 28 288 6.4 20.9 0.00 0.00 0.00 35 1009.3